2024-247J (62385 NORAD) Tracking and Keplerian Element Data

This shows tracking and keplerian element data for the satellite.

Feedback or suggestion? Click here.




ElementValue
Catalog62385
Name2024-247J
Epoch Orbit671
Epoch Day33.63533452
Epoch Year2025
RAAN127.9589
Inclination44.9948
Eccentricity0.000361
Argument of Perigee252.0875
Mean Anonmoly107.9612
Mean Motion15.21245007
Decay Rate0.00026473
L11 62385U 24247J 25033.63533452 .00026473 00000+0 11722-2 0 9993
L22 62385 44.9948 127.9589 0003610 252.0875 107.9612 15.21245007 6711



Live tracking and technical data element details for 2024-247J (NORAD 62385). 2024-247J can be tracked NOW for your location showing map with azimuth and elevation plus other details from your city location.







IsCatalogInMostPopularTable: catalog: 62385, numindb: 10
Update: records affected: 1



GetName: 62385 2024-247J

Hit Count: updated at: Mon, 19 May 2025 02:49:33 GMT